[Date Prev][Date Next][Thread Prev][Thread Next] - [Date Index][Thread Index][Author Index]
2 Line ISS Keps 3-12
- Subject: [sarex] 2 Line ISS Keps 3-12
- From: "Dave Larsen PhD" <doc@xxxxxxxxxxx>
- Date: Tue, 12 Mar 2002 02:43:29 -0800
ISS
1 25544U 98067A 02071.23495935 .00071242 00000-0 83633-3 0 1736
2 25544 51.6380 179.9699 0004679 170.4957 271.6111 15.60808148188911
----
Via the sarex mailing list at AMSAT.ORG courtesy of AMSAT-NA.
To unsubscribe, send "unsubscribe sarex" to Majordomo@amsat.org
AMSAT Home